Flag for Sudan Weather past 2 weeks in Khartoum, Sudan

Now
104 °F

Sunny.


Feels Like: 98 °F
Forecast: 78 / 90 °F
Wind: 10 mph from Southwest

Location: Asswan

Current Time: Jul 24, 2014 at 8:01:56 PM

Latest Report: Jul 24, 2014 at 7:00 PM


Visibility: 10 mi

Pressure: 29.65 "Hg

Humidity: 9%

Dew point: 34 °F

Location of KhartoumLocation

Historic Weather in Khartoum — Graph

°F

Khartoum temperature yesterday

Maximum temperature yesterday: 106 °F (at 5:00 PM)
Minimum temperature yesterday: 82 °F (at 6:00 AM)
Average temperature yesterday: 95 °F

Past Weeks' High & Low Weather Summary

 TemperatureHumidityPressure
High117 °F (Jul 13, 4:00 PM)35% (Jul 19, 5:00 AM)29.86 "Hg (Jul 19, 5:00 AM)
Low81 °F (Jul 16, 6:00 AM)4% (Jul 12, 3:00 PM)29.65 "Hg (Jul 15, 6:00 PM)
Average96 °F15%29.75 "Hg
* Reported Jul 9 6:00 PM — Jul 24 6:00 PM, Khartoum, Weather by CustomWeather, © 2014

Note: Actual official high and low records may vary slightly from our data, if they occured in-between our weather recording intervals... More about our weather records

Advertising

Khartoum weather history for previous 24 hours

 ConditionsComfort  
Time TempWeatherWind HumidityBarometerVisibility
6:00 PM
Jul 24
106 °FSunny.10 mph9%29.65 "Hg10 mi
5:00 PM108 °FSunny.9 mph8%29.65 "Hg10 mi
4:00 PM106 °FSunny.15 mph11%29.68 "Hg10 mi
3:00 PM106 °FSunny.17 mph12%29.68 "Hg10 mi
2:00 PM104 °FSunny.8 mph12%29.71 "Hg10 mi
1:00 PM104 °FSunny.7 mph11%29.74 "Hg10 mi
12:00 PM100 °FSunny.5 mph16%29.77 "Hg10 mi
11:00 AM100 °FSunny.6 mph15%29.77 "Hg10 mi
10:00 AM97 °FSunny.8 mph16%29.77 "Hg10 mi
9:00 AM93 °FSunny.6 mph17%29.77 "Hg10 mi
8:00 AM90 °FSunny.6 mph18%29.77 "Hg10 mi
7:00 AM84 °FSunny.6 mph23%29.74 "Hg10 mi
6:00 AM84 °FClear.5 mph22%29.74 "Hg10 mi
5:00 AM86 °FClear.7 mph22%29.74 "Hg10 mi
4:00 AM86 °FClear.6 mph20%29.74 "Hg10 mi
3:00 AM88 °FClear.6 mph21%29.74 "Hg10 mi
2:00 AM90 °FClear.3 mph20%29.74 "Hg10 mi
1:00 AM91 °FClear.6 mph17%29.74 "Hg10 mi
12:00 AM93 °FClear.2 mph15%29.77 "Hg10 mi
10:00 PM
Jul 23
97 °FClear.6 mph13%29.77 "Hg10 mi
9:00 PM99 °FClear.7 mph12%29.74 "Hg10 mi
8:00 PM100 °FClear.6 mph12%29.71 "Hg10 mi
Weather by CustomWeather, © 2014

See weather overviewHow to use our weather pages